| time (UTC) | temp F | wind direction | speed MPH | gust MPH | rain 1hr in | rain 24hr in | rain mn in | humidity % | barometer mb |
| 20260509073604 | 71 | 332 | 0.0 | 0.0 | 0.00 | 0.00 | 0.00 | 97 | 1013.0 |
| 20260509073104 | 71 | 332 | 0.0 | 0.0 | 0.00 | 0.00 | 0.00 | 97 | 1012.8 |
| 20260509072604 | 71 | 332 | 0.0 | 0.0 | 0.00 | 0.00 | 0.00 | 97 | 1012.6 |
| 20260509072322 | 71 | 331 | 0.0 | 0.0 | 0.00 | 0.00 | 0.00 | 97 | 1012.8 |
| 20260509071603 | 71 | 332 | 0.0 | 0.0 | 0.00 | 0.00 | 0.00 | 96 | 1012.9 |
| 20260509071104 | 71 | 332 | 0.0 | 0.0 | 0.00 | 0.00 | 0.00 | 96 | 1013.2 |
| 20260509070821 | 71 | 332 | 0.0 | 0.0 | 0.00 | 0.00 | 0.00 | 96 | 1012.9 |
| 20260509070324 | 71 | 332 | 0.0 | 0.0 | 0.00 | 0.00 | 0.00 | 96 | 1013.0 |
| 20260509065602 | 71 | 332 | 0.0 | 0.0 | 0.00 | 0.00 | 0.00 | 96 | 1012.7 |
| 20260509065104 | 71 | 332 | 0.0 | 0.0 | 0.00 | 0.00 | 0.00 | 96 | 1012.7 |
| 20260509064603 | 71 | 332 | 0.0 | 0.0 | 0.00 | 0.00 | 0.00 | 96 | 1012.7 |
| 20260509064104 | 71 | 332 | 0.0 | 0.0 | 0.00 | 0.00 | 0.00 | 96 | 1012.9 |
| 20260509063604 | 71 | 332 | 0.0 | 0.0 | 0.00 | 0.00 | 0.00 | 96 | 1012.9 |
| 20260509063105 | 71 | 332 | 0.0 | 1.0 | 0.00 | 0.00 | 0.00 | 96 | 1012.9 |
| 20260509062558 | 71 | 332 | 0.0 | 4.0 | 0.00 | 0.00 | 0.00 | 97 | 1013.0 |
| 20260509062100 | 71 | 331 | 1.0 | 4.0 | 0.00 | 0.00 | 0.00 | 97 | 1012.9 |
| 20260509061556 | 71 | 332 | 1.0 | 4.0 | 0.00 | 0.00 | 0.00 | 97 | 1013.3 |
| 20260509061055 | 70 | 333 | 2.0 | 4.0 | 0.00 | 0.00 | 0.00 | 97 | 1013.0 |
| 20260509060812 | 70 | 342 | 2.0 | 4.0 | 0.00 | 0.00 | 0.00 | 97 | 1012.7 |
| 20260509060050 | 70 | 321 | 2.0 | 4.0 | 0.00 | 0.00 | 0.00 | 96 | 1012.7 |
| 20260509055549 | 70 | 248 | 2.0 | 4.0 | 0.00 | 0.00 | 0.00 | 96 | 1012.8 |
| 20260509055323 | 70 | 244 | 2.0 | 4.0 | 0.00 | 0.00 | 0.00 | 96 | 1012.8 |
| 20260509054545 | 70 | 243 | 2.0 | 4.0 | 0.00 | 0.00 | 0.00 | 96 | 1012.7 |
| 20260509054532 | 70 | 225 | 1.0 | 4.0 | 0.00 | 0.00 | 0.00 | 96 | 1012.5 |
| 20260509053543 | 70 | 146 | 0.0 | 2.0 | 0.00 | 0.00 | 0.00 | 96 | 1012.1 |
| 20260509053300 | 70 | 146 | 0.0 | 1.0 | 0.00 | 0.00 | 0.00 | 95 | 1011.9 |
| 20260509052542 | 70 | 146 | 0.0 | 1.0 | 0.00 | 0.00 | 0.00 | 95 | 1011.6 |
| 20260509052038 | 70 | 146 | 0.0 | 1.0 | 0.00 | 0.00 | 0.00 | 94 | 1011.4 |
| 20260509051538 | 70 | 146 | 0.0 | 2.0 | 0.00 | 0.00 | 0.00 | 94 | 1011.3 |
| 20260509051038 | 71 | 146 | 1.0 | 2.0 | 0.00 | 0.00 | 0.00 | 94 | 1011.2 |
| 20260509050538 | 71 | 146 | 1.0 | 3.0 | 0.00 | 0.00 | 0.00 | 94 | 1011.2 |
| 20260509050036 | 71 | 146 | 1.0 | 3.0 | 0.00 | 0.00 | 0.00 | 94 | 1011.2 |
| 20260509045534 | 71 | 142 | 2.0 | 4.0 | 0.00 | 0.00 | 0.00 | 94 | 1011.2 |
| 20260509045033 | 71 | 142 | 2.0 | 4.0 | 0.00 | 0.00 | 0.00 | 94 | 1011.1 |
| 20260509044531 | 72 | 133 | 1.0 | 3.0 | 0.00 | 0.00 | 0.00 | 94 | 1011.1 |
| 20260509044033 | 72 | 132 | 0.0 | 2.0 | 0.00 | 0.00 | 0.00 | 94 | 1011.2 |
| 20260509043527 | 72 | 132 | 0.0 | 1.0 | 0.00 | 0.00 | 0.00 | 94 | 1011.5 |
| 20260509043021 | 72 | 132 | 0.0 | 1.0 | 0.00 | 0.00 | 0.00 | 94 | 1011.7 |
| 20260509042516 | 72 | 132 | 0.0 | 1.0 | 0.00 | 0.00 | 0.00 | 94 | 1011.8 |
| 20260509042015 | 72 | 132 | 0.0 | 3.0 | 0.00 | 0.00 | 0.00 | 94 | 1011.8 |
| 20260509041516 | 72 | 132 | 0.0 | 3.0 | 0.00 | 0.00 | 0.00 | 94 | 1011.8 |
| 20260509041015 | 72 | 132 | 1.0 | 3.0 | 0.00 | 0.00 | 0.00 | 94 | 1011.8 |
| 20260509040516 | 72 | 132 | 1.0 | 3.0 | 0.00 | 0.00 | 0.00 | 94 | 1011.9 |
| 20260509040016 | 72 | 132 | 0.0 | 2.0 | 0.00 | 0.00 | 0.00 | 94 | 1012.0 |
| 20260509035741 | 72 | 132 | 0.0 | 2.0 | 0.00 | 0.00 | 0.00 | 94 | 1012.0 |
| 20260509035014 | 72 | 132 | 0.0 | 2.0 | 0.00 | 0.00 | 0.00 | 93 | 1011.9 |
| 20260509034512 | 72 | 132 | 0.0 | 2.0 | 0.00 | 0.00 | 0.00 | 93 | 1011.9 |
| 20260509034012 | 72 | 132 | 0.0 | 5.0 | 0.00 | 0.00 | 0.00 | 93 | 1011.8 |
| 20260509033512 | 72 | 132 | 1.0 | 5.0 | 0.00 | 0.00 | 0.00 | 93 | 1011.9 |
| 20260509033012 | 72 | 132 | 2.0 | 5.0 | 0.00 | 0.00 | 0.00 | 93 | 1011.6 |
| 20260509032512 | 73 | 132 | 2.0 | 5.0 | 0.00 | 0.00 | 0.00 | 93 | 1011.6 |
| 20260509032008 | 73 | 130 | 2.0 | 5.0 | 0.00 | 0.00 | 0.00 | 93 | 1011.5 |
| 20260509031507 | 73 | 139 | 3.0 | 6.0 | 0.00 | 0.00 | 0.00 | 93 | 1011.5 |
| 20260509031008 | 72 | 147 | 3.0 | 6.0 | 0.00 | 0.00 | 0.00 | 93 | 1011.4 |
| 20260509030507 | 72 | 151 | 3.0 | 6.0 | 0.00 | 0.00 | 0.00 | 93 | 1011.4 |
| 20260509030008 | 72 | 146 | 2.0 | 5.0 | 0.00 | 0.00 | 0.00 | 92 | 1011.3 |
| 20260509025508 | 72 | 152 | 1.0 | 5.0 | 0.00 | 0.00 | 0.00 | 92 | 1011.3 |
| 20260509025005 | 73 | 115 | 1.0 | 3.0 | 0.00 | 0.00 | 0.00 | 91 | 1011.3 |
| 20260509024507 | 73 | 92 | 0.0 | 1.0 | 0.00 | 0.00 | 0.00 | 91 | 1011.3 |
| 20260509024241 | 73 | 91 | 0.0 | 0.0 | 0.00 | 0.00 | 0.00 | 90 | 1011.3 |
| 20260509023505 | 73 | 91 | 0.0 | 0.0 | 0.00 | 0.00 | 0.00 | 90 | 1011.2 |
| 20260509023006 | 74 | 91 | 0.0 | 2.0 | 0.00 | 0.00 | 0.00 | 90 | 1011.2 |
| 20260509022958 | 74 | 91 | 1.0 | 3.0 | 0.00 | 0.00 | 0.00 | 90 | 1011.2 |
| 20260509022005 | 74 | 91 | 1.0 | 3.0 | 0.00 | 0.00 | 0.00 | 90 | 1011.2 |
| 20260509021505 | 74 | 92 | 2.0 | 4.0 | 0.00 | 0.00 | 0.00 | 90 | 1011.1 |
| 20260509021005 | 74 | 91 | 1.0 | 4.0 | 0.00 | 0.00 | 0.00 | 90 | 1011.1 |
| 20260509020505 | 74 | 89 | 2.0 | 3.0 | 0.00 | 0.00 | 0.00 | 90 | 1011.0 |
| 20260509020005 | 74 | 88 | 2.0 | 4.0 | 0.00 | 0.00 | 0.00 | 90 | 1010.9 |
| 20260509015505 | 74 | 91 | 2.0 | 4.0 | 0.00 | 0.00 | 0.00 | 90 | 1010.8 |
| 20260509015005 | 74 | 102 | 2.0 | 4.0 | 0.00 | 0.00 | 0.00 | 90 | 1010.7 |
| 20260509014505 | 74 | 92 | 1.0 | 4.0 | 0.00 | 0.00 | 0.00 | 89 | 1010.8 |
| 20260509014004 | 74 | 84 | 1.0 | 3.0 | 0.00 | 0.00 | 0.00 | 89 | 1010.6 |
| 20260509013504 | 74 | 84 | 2.0 | 5.0 | 0.00 | 0.00 | 0.00 | 89 | 1010.6 |
| 20260509013236 | 74 | 97 | 2.0 | 5.0 | 0.00 | 0.00 | 0.00 | 89 | 1010.5 |
| 20260509012504 | 74 | 92 | 3.0 | 5.0 | 0.00 | 0.00 | 0.00 | 89 | 1010.3 |
| 20260509012005 | 74 | 74 | 3.0 | 8.0 | 0.00 | 0.00 | 0.00 | 88 | 1010.3 |
| 20260509011504 | 75 | 81 | 4.0 | 9.0 | 0.00 | 0.00 | 0.00 | 88 | 1010.3 |
| 20260509011005 | 75 | 71 | 4.0 | 9.0 | 0.00 | 0.00 | 0.00 | 88 | 1010.2 |
| 20260509010504 | 75 | 85 | 5.0 | 10.0 | 0.00 | 0.00 | 0.00 | 88 | 1010.2 |
| 20260509010228 | 75 | 116 | 5.0 | 10.0 | 0.00 | 0.00 | 0.00 | 87 | 1010.2 |
| 20260509005502 | 75 | 105 | 4.0 | 8.0 | 0.00 | 0.00 | 0.00 | 87 | 1010.3 |
| 20260509005230 | 76 | 88 | 4.0 | 7.0 | 0.00 | 0.00 | 0.00 | 87 | 1010.5 |
| 20260509004500 | 76 | 117 | 4.0 | 7.0 | 0.00 | 0.00 | 0.00 | 87 | 1010.5 |
| 20260509004000 | 76 | 117 | 4.0 | 7.0 | 0.00 | 0.00 | 0.00 | 87 | 1010.5 |
| 20260509003736 | 75 | 114 | 4.0 | 9.0 | 0.00 | 0.00 | 0.00 | 87 | 1010.5 |
| 20260509002953 | 75 | 122 | 4.0 | 9.0 | 0.00 | 0.00 | 0.00 | 87 | 1010.5 |
| 20260509002712 | 75 | 126 | 4.0 | 7.0 | 0.00 | 0.00 | 0.00 | 87 | 1010.4 |
| 20260509002213 | 75 | 127 | 3.0 | 10.0 | 0.00 | 0.00 | 0.00 | 87 | 1010.4 |
| 20260509001439 | 75 | 101 | 4.0 | 10.0 | 0.00 | 0.00 | 0.00 | 87 | 1010.5 |
| 20260509000937 | 75 | 96 | 5.0 | 10.0 | 0.00 | 0.00 | 0.00 | 87 | 1010.4 |
| 20260509000440 | 75 | 117 | 4.0 | 10.0 | 0.00 | 0.00 | 0.00 | 87 | 1010.4 |
| 20260509000220 | 75 | 115 | 4.0 | 8.0 | 0.00 | 0.00 | 0.00 | 87 | 1010.5 |
| 20260508235437 | 75 | 84 | 4.0 | 7.0 | 0.00 | 0.00 | 0.00 | 87 | 1010.5 |
| 20260508234938 | 75 | 117 | 4.0 | 7.0 | 0.00 | 0.00 | 0.00 | 87 | 1010.6 |
| 20260508234435 | 75 | 98 | 4.0 | 8.0 | 0.00 | 0.00 | 0.00 | 87 | 1010.7 |
| 20260508233936 | 75 | 112 | 3.0 | 8.0 | 0.00 | 0.00 | 0.00 | 87 | 1010.8 |
| 20260508233433 | 75 | 98 | 4.0 | 8.0 | 0.00 | 0.00 | 0.00 | 86 | 1010.7 |
| 20260508232938 | 76 | 94 | 4.0 | 10.0 | 0.00 | 0.00 | 0.00 | 86 | 1010.6 |
| 20260508232934 | 75 | 91 | 5.0 | 10.0 | 0.00 | 0.00 | 0.00 | 86 | 1010.6 |
| 20260508231932 | 76 | 103 | 4.0 | 10.0 | 0.00 | 0.00 | 0.00 | 85 | 1010.6 |
| 20260508231433 | 76 | 92 | 4.0 | 10.0 | 0.00 | 0.00 | 0.00 | 85 | 1010.6 |
| 20260508230932 | 76 | 105 | 4.0 | 8.0 | 0.00 | 0.00 | 0.00 | 85 | 1010.6 |
| 20260508230433 | 76 | 91 | 3.0 | 8.0 | 0.00 | 0.00 | 0.00 | 84 | 1010.6 |
| 20260508225932 | 76 | 96 | 3.0 | 7.0 | 0.00 | 0.00 | 0.00 | 84 | 1010.6 |
| 20260508225441 | 76 | 107 | 5.0 | 9.0 | 0.00 | 0.00 | 0.00 | 84 | 1010.6 |
| 20260508224938 | 76 | 119 | 6.0 | 11.0 | 0.00 | 0.00 | 0.00 | 83 | 1010.5 |
| 20260508224432 | 76 | 91 | 6.0 | 11.0 | 0.00 | 0.00 | 0.00 | 83 | 1010.5 |
| 20260508223930 | 76 | 96 | 7.0 | 11.0 | 0.00 | 0.00 | 0.00 | 83 | 1010.6 |
| 20260508223414 | 76 | 115 | 6.0 | 11.0 | 0.00 | 0.00 | 0.00 | 83 | 1010.6 |
| 20260508222919 | 77 | 98 | 5.0 | 10.0 | 0.00 | 0.00 | 0.00 | 82 | 1010.6 |
| 20260508222419 | 77 | 137 | 5.0 | 10.0 | 0.00 | 0.00 | 0.00 | 82 | 1010.5 |
| 20260508221926 | 77 | 34 | 5.0 | 10.0 | 0.00 | 0.00 | 0.00 | 82 | 1010.5 |
| 20260508221414 | 77 | 87 | 5.0 | 11.0 | 0.00 | 0.00 | 0.00 | 81 | 1010.6 |
| 20260508220912 | 77 | 115 | 5.0 | 11.0 | 0.00 | 0.00 | 0.00 | 81 | 1010.5 |
| 20260508220412 | 77 | 80 | 5.0 | 10.0 | 0.00 | 0.00 | 0.00 | 81 | 1010.6 |
| 20260508215914 | 77 | 97 | 6.0 | 11.0 | 0.00 | 0.00 | 0.00 | 81 | 1010.6 |
| 20260508215411 | 77 | 94 | 6.0 | 11.0 | 0.00 | 0.00 | 0.00 | 80 | 1010.7 |
| 20260508214909 | 78 | 107 | 5.0 | 11.0 | 0.00 | 0.00 | 0.00 | 79 | 1010.7 |
| 20260508214417 | 78 | 116 | 4.0 | 11.0 | 0.00 | 0.00 | 0.00 | 79 | 1010.6 |
| 20260508213911 | 78 | 111 | 5.0 | 9.0 | 0.00 | 0.00 | 0.00 | 78 | 1010.7 |
| 20260508213410 | 78 | 152 | 6.0 | 10.0 | 0.00 | 0.00 | 0.00 | 79 | 1010.7 |
| 20260508212909 | 78 | 93 | 5.0 | 10.0 | 0.00 | 0.00 | 0.00 | 78 | 1010.8 |
| 20260508212407 | 78 | 120 | 4.0 | 11.0 | 0.00 | 0.00 | 0.00 | 79 | 1010.9 |
| 20260508211905 | 78 | 111 | 4.0 | 11.0 | 0.00 | 0.00 | 0.00 | 79 | 1011.0 |
| 20260508211632 | 78 | 114 | 5.0 | 14.0 | 0.00 | 0.00 | 0.00 | 78 | 1011.1 |
| 20260508211121 | 79 | 117 | 5.0 | 14.0 | 0.00 | 0.00 | 0.00 | 77 | 1011.1 |
| 20260508210405 | 78 | 110 | 6.0 | 14.0 | 0.00 | 0.00 | 0.00 | 79 | 1011.1 |
| 20260508205901 | 78 | 119 | 7.0 | 14.0 | 0.00 | 0.00 | 0.00 | 78 | 1011.1 |
| 20260508205356 | 78 | 115 | 5.0 | 13.0 | 0.00 | 0.00 | 0.00 | 79 | 1011.3 |
| 20260508204852 | 78 | 82 | 4.0 | 9.0 | 0.00 | 0.00 | 0.00 | 79 | 1011.4 |
| 20260508204358 | 78 | 84 | 4.0 | 9.0 | 0.00 | 0.00 | 0.00 | 78 | 1011.5 |
| 20260508203907 | 78 | 107 | 4.0 | 9.0 | 0.00 | 0.00 | 0.00 | 77 | 1011.7 |
| 20260508203345 | 78 | 112 | 4.0 | 9.0 | 0.00 | 0.00 | 0.00 | 78 | 1011.6 |
| 20260508203318 | 78 | 78 | 3.0 | 9.0 | 0.00 | 0.00 | 0.00 | 79 | 1011.6 |
| 20260508202339 | 77 | 134 | 4.0 | 9.0 | 0.00 | 0.00 | 0.00 | 80 | 1011.7 |
| 20260508201839 | 77 | 155 | 4.0 | 10.0 | 0.00 | 0.00 | 0.00 | 79 | 1011.9 |
| 20260508201337 | 77 | 128 | 3.0 | 10.0 | 0.00 | 0.00 | 0.00 | 80 | 1011.9 |
| 20260508200837 | 77 | 121 | 3.0 | 10.0 | 0.00 | 0.00 | 0.00 | 78 | 1012.1 |
| 20260508200555 | 77 | 146 | 4.0 | 10.0 | 0.00 | 0.00 | 0.00 | 79 | 1012.1 |
| 20260508195838 | 77 | 84 | 5.0 | 10.0 | 0.00 | 0.00 | 0.00 | 79 | 1012.3 |
| 20260508195337 | 77 | 105 | 5.0 | 10.0 | 0.00 | 0.00 | 0.00 | 79 | 1012.0 |
| 20260508195100 | 77 | 57 | 3.0 | 9.0 | 0.00 | 0.00 | 0.00 | 78 | 1012.1 |
| 20260508194337 | 77 | 9 | 2.0 | 9.0 | 0.00 | 0.00 | 0.00 | 79 | 1012.1 |
| 20260508193837 | 76 | 22 | 2.0 | 7.0 | 0.00 | 0.00 | 0.00 | 79 | 1012.5 |
| 20260508193336 | 76 | 82 | 3.0 | 7.0 | 0.00 | 0.00 | 0.00 | 79 | 1012.7 |
| 20260508192835 | 76 | 86 | 3.0 | 7.0 | 0.00 | 0.00 | 0.00 | 79 | 1012.8 |
| 20260508192333 | 76 | 0 | 2.0 | 5.0 | 0.00 | 0.00 | 0.00 | 80 | 1012.7 |
| 20260508191833 | 76 | 76 | 3.0 | 9.0 | 0.00 | 0.00 | 0.00 | 79 | 1012.8 |
| 20260508191556 | 76 | 84 | 3.0 | 9.0 | 0.00 | 0.00 | 0.00 | 80 | 1012.8 |
| 20260508191550 | 75 | 134 | 3.0 | 8.0 | 0.00 | 0.00 | 0.00 | 80 | 1012.9 |
| 20260508190334 | 75 | 113 | 4.0 | 8.0 | 0.00 | 0.00 | 0.00 | 80 | 1012.9 |
| 20260508185833 | 75 | 150 | 3.0 | 8.0 | 0.00 | 0.00 | 0.00 | 81 | 1012.9 |
| 20260508185332 | 75 | 98 | 3.0 | 9.0 | 0.00 | 0.00 | 0.00 | 80 | 1013.0 |
| 20260508184833 | 75 | 130 | 4.0 | 9.0 | 0.00 | 0.00 | 0.00 | 80 | 1012.9 |
| 20260508184333 | 75 | 17 | 3.0 | 8.0 | 0.00 | 0.00 | 0.00 | 80 | 1012.9 |
| 20260508184100 | 75 | 52 | 3.0 | 8.0 | 0.00 | 0.00 | 0.00 | 80 | 1012.9 |
| 20260508183332 | 75 | 70 | 2.0 | 6.0 | 0.00 | 0.00 | 0.00 | 80 | 1013.0 |
| 20260508182834 | 74 | 60 | 2.0 | 7.0 | 0.00 | 0.00 | 0.00 | 80 | 1013.2 |
| 20260508182332 | 74 | 135 | 2.0 | 7.0 | 0.00 | 0.00 | 0.00 | 81 | 1013.3 |
| 20260508181832 | 73 | 130 | 2.0 | 7.0 | 0.00 | 0.00 | 0.00 | 82 | 1013.3 |
| 20260508181333 | 72 | 129 | 1.0 | 3.0 | 0.00 | 0.00 | 0.00 | 82 | 1013.5 |
| 20260508180833 | 72 | 132 | 2.0 | 6.0 | 0.00 | 0.00 | 0.00 | 83 | 1013.6 |
| 20260508180333 | 72 | 134 | 2.0 | 6.0 | 0.00 | 0.00 | 0.00 | 82 | 1013.7 |
| 20260508175833 | 71 | 109 | 2.0 | 4.0 | 0.00 | 0.00 | 0.00 | 83 | 1013.8 |
| 20260508175332 | 71 | 103 | 2.0 | 4.0 | 0.00 | 0.00 | 0.00 | 83 | 1013.7 |
| 20260508175325 | 71 | 67 | 1.0 | 5.0 | 0.00 | 0.00 | 0.00 | 83 | 1013.8 |
| 20260508174333 | 71 | 90 | 2.0 | 5.0 | 0.00 | 0.00 | 0.00 | 83 | 1013.7 |
| 20260508173834 | 71 | 37 | 2.0 | 5.0 | 0.00 | 0.00 | 0.00 | 83 | 1013.8 |
| 20260508173333 | 71 | 337 | 2.0 | 5.0 | 0.00 | 0.00 | 0.00 | 82 | 1013.9 |
| 20260508172833 | 71 | 21 | 2.0 | 6.0 | 0.00 | 0.00 | 0.00 | 82 | 1013.9 |
| 20260508172334 | 71 | 348 | 3.0 | 6.0 | 0.00 | 0.00 | 0.00 | 82 | 1014.0 |
| 20260508171832 | 70 | 17 | 3.0 | 7.0 | 0.00 | 0.00 | 0.00 | 83 | 1014.0 |
| 20260508171332 | 70 | 343 | 3.0 | 7.0 | 0.00 | 0.00 | 0.00 | 83 | 1014.0 |
| 20260508170830 | 70 | 47 | 2.0 | 5.0 | 0.00 | 0.00 | 0.00 | 82 | 1014.0 |
| 20260508170324 | 70 | 17 | 1.0 | 4.0 | 0.00 | 0.00 | 0.00 | 83 | 1014.2 |
| 20260508165816 | 70 | 87 | 0.0 | 2.0 | 0.00 | 0.00 | 0.00 | 83 | 1014.5 |
| 20260508165310 | 69 | 87 | 1.0 | 3.0 | 0.00 | 0.00 | 0.00 | 85 | 1014.5 |
| 20260508164807 | 69 | 88 | 1.0 | 3.0 | 0.00 | 0.00 | 0.00 | 84 | 1014.6 |
| 20260508164307 | 69 | 85 | 1.0 | 3.0 | 0.00 | 0.00 | 0.00 | 84 | 1014.7 |
| 20260508163807 | 69 | 85 | 1.0 | 3.0 | 0.00 | 0.00 | 0.00 | 84 | 1014.8 |
| 20260508163305 | 68 | 81 | 1.0 | 3.0 | 0.00 | 0.00 | 0.00 | 85 | 1014.9 |
| 20260508162805 | 68 | 128 | 1.0 | 3.0 | 0.00 | 0.00 | 0.00 | 86 | 1014.9 |
| 20260508162307 | 67 | 123 | 1.0 | 4.0 | 0.00 | 0.00 | 0.00 | 84 | 1014.9 |
| 20260508161805 | 67 | 123 | 1.0 | 4.0 | 0.00 | 0.00 | 0.00 | 85 | 1014.8 |
| 20260508161305 | 67 | 180 | 1.0 | 2.0 | 0.00 | 0.00 | 0.00 | 85 | 1014.8 |
| 20260508160805 | 67 | 180 | 2.0 | 4.0 | 0.00 | 0.00 | 0.00 | 85 | 1014.9 |
| 20260508160304 | 67 | 180 | 2.0 | 7.0 | 0.00 | 0.00 | 0.00 | 85 | 1015.0 |
| 20260508155804 | 67 | 138 | 2.0 | 7.0 | 0.00 | 0.00 | 0.00 | 85 | 1015.0 |
| 20260508155306 | 67 | 105 | 2.0 | 7.0 | 0.00 | 0.00 | 0.00 | 84 | 1015.1 |
| 20260508155039 | 67 | 124 | 2.0 | 7.0 | 0.00 | 0.00 | 0.00 | 85 | 1015.1 |
| 20260508154305 | 67 | 126 | 3.0 | 7.0 | 0.00 | 0.00 | 0.00 | 84 | 1015.1 |
| 20260508153805 | 67 | 138 | 3.0 | 6.0 | 0.00 | 0.00 | 0.00 | 84 | 1015.3 |
| 20260508153757 | 67 | 177 | 3.0 | 7.0 | 0.00 | 0.00 | 0.00 | 85 | 1015.3 |
| 20260508152803 | 67 | 0 | 3.0 | 7.0 | 0.00 | 0.00 | 0.00 | 84 | 1015.3 |
| 20260508152256 | 67 | 133 | 2.0 | 5.0 | 0.00 | 0.00 | 0.00 | 84 | 1015.3 |
| 20260508151754 | 67 | 113 | 2.0 | 5.0 | 0.00 | 0.00 | 0.00 | 85 | 1015.1 |
| 20260508151252 | 67 | 113 | 2.0 | 5.0 | 0.00 | 0.00 | 0.00 | 85 | 1015.1 |
| 20260508150749 | 67 | 138 | 3.0 | 5.0 | 0.00 | 0.00 | 0.00 | 86 | 1015.2 |
| 20260508150247 | 66 | 104 | 3.0 | 6.0 | 0.00 | 0.00 | 0.00 | 85 | 1015.2 |
| 20260508145747 | 66 | 131 | 2.0 | 6.0 | 0.00 | 0.00 | 0.00 | 86 | 1015.2 |
| 20260508145508 | 66 | 138 | 2.0 | 5.0 | 0.00 | 0.00 | 0.00 | 86 | 1015.2 |
| 20260508144746 | 66 | 80 | 1.0 | 3.0 | 0.00 | 0.00 | 0.00 | 85 | 1015.1 |
| 20260508144243 | 65 | 38 | 1.0 | 3.0 | 0.00 | 0.00 | 0.00 | 86 | 1015.0 |
| 20260508143744 | 65 | 68 | 1.0 | 3.0 | 0.00 | 0.00 | 0.00 | 86 | 1015.0 |
| 20260508143242 | 65 | 66 | 1.0 | 4.0 | 0.00 | 0.00 | 0.00 | 87 | 1015.0 |
| 20260508142741 | 64 | 63 | 2.0 | 4.0 | 0.00 | 0.00 | 0.00 | 87 | 1015.1 |
| 20260508142508 | 64 | 55 | 2.0 | 4.0 | 0.00 | 0.00 | 0.00 | 87 | 1015.2 |
| 20260508141738 | 64 | 97 | 1.0 | 4.0 | 0.00 | 0.00 | 0.00 | 87 | 1015.3 |
| 20260508141236 | 64 | 111 | 0.0 | 4.0 | 0.00 | 0.00 | 0.00 | 88 | 1015.2 |
| 20260508140737 | 63 | 111 | 0.0 | 4.0 | 0.00 | 0.00 | 0.00 | 87 | 1015.3 |
| 20260508140725 | 64 | 111 | 1.0 | 4.0 | 0.00 | 0.00 | 0.00 | 87 | 1015.2 |
| 20260508135735 | 64 | 112 | 2.0 | 4.0 | 0.00 | 0.00 | 0.00 | 87 | 1015.1 |
| 20260508135233 | 63 | 19 | 1.0 | 5.0 | 0.00 | 0.00 | 0.00 | 88 | 1015.0 |
| 20260508134732 | 63 | 28 | 2.0 | 5.0 | 0.00 | 0.00 | 0.00 | 89 | 1015.0 |
| 20260508134232 | 62 | 32 | 2.0 | 4.0 | 0.00 | 0.00 | 0.00 | 89 | 1014.9 |
| 20260508133728 | 62 | 103 | 2.0 | 4.0 | 0.00 | 0.00 | 0.00 | 90 | 1015.1 |
| 20260508133448 | 62 | 109 | 1.0 | 4.0 | 0.00 | 0.00 | 0.00 | 90 | 1015.5 |
| 20260508132716 | 61 | 80 | 1.0 | 3.0 | 0.00 | 0.00 | 0.00 | 90 | 1015.7 |
| 20260508132210 | 61 | 79 | 1.0 | 3.0 | 0.00 | 0.00 | 0.00 | 91 | 1015.7 |
| 20260508131711 | 61 | 78 | 1.0 | 3.0 | 0.00 | 0.00 | 0.00 | 92 | 1015.7 |
| 20260508131208 | 61 | 78 | 1.0 | 3.0 | 0.00 | 0.00 | 0.00 | 92 | 1015.7 |
| 20260508130709 | 60 | 52 | 0.0 | 2.0 | 0.00 | 0.00 | 0.00 | 92 | 1015.7 |
| 20260508130208 | 60 | 52 | 0.0 | 0.0 | 0.00 | 0.00 | 0.00 | 93 | 1015.5 |
| 20260508125707 | 60 | 52 | 0.0 | 0.0 | 0.00 | 0.00 | 0.00 | 93 | 1015.5 |
| 20260508125206 | 60 | 52 | 0.0 | 0.0 | 0.00 | 0.00 | 0.00 | 93 | 1015.6 |
| 20260508124705 | 60 | 52 | 0.0 | 0.0 | 0.00 | 0.00 | 0.00 | 93 | 1015.6 |
| 20260508124440 | 60 | 52 | 0.0 | 0.0 | 0.00 | 0.00 | 0.00 | 93 | 1015.6 |
| 20260508123705 | 59 | 52 | 0.0 | 0.0 | 0.00 | 0.00 | 0.00 | 93 | 1015.7 |
| 20260508123206 | 59 | 52 | 0.0 | 0.0 | 0.00 | 0.00 | 0.00 | 94 | 1015.7 |
| 20260508123156 | 59 | 52 | 0.0 | 1.0 | 0.00 | 0.00 | 0.00 | 94 | 1015.8 |
| 20260508122429 | 59 | 51 | 0.0 | 1.0 | 0.00 | 0.00 | 0.00 | 94 | 1015.8 |
| 20260508121706 | 59 | 52 | 1.0 | 2.0 | 0.00 | 0.00 | 0.00 | 94 | 1015.9 |
| 20260508121205 | 59 | 52 | 1.0 | 2.0 | 0.00 | 0.00 | 0.00 | 94 | 1015.8 |
| 20260508120707 | 59 | 51 | 0.0 | 1.0 | 0.00 | 0.00 | 0.00 | 94 | 1015.9 |
| 20260508120206 | 59 | 51 | 0.0 | 1.0 | 0.00 | 0.00 | 0.00 | 93 | 1016.0 |
| 20260508115705 | 59 | 51 | 0.0 | 1.0 | 0.00 | 0.00 | 0.00 | 94 | 1016.2 |
| 20260508115206 | 59 | 51 | 0.0 | 2.0 | 0.00 | 0.00 | 0.00 | 94 | 1016.1 |
| 20260508114705 | 59 | 52 | 1.0 | 3.0 | 0.00 | 0.00 | 0.00 | 94 | 1016.0 |
| 20260508114204 | 59 | 51 | 1.0 | 3.0 | 0.00 | 0.00 | 0.00 | 94 | 1016.1 |
| 20260508113711 | 59 | 52 | 1.0 | 4.0 | 0.00 | 0.00 | 0.00 | 94 | 1016.3 |
| 20260508113211 | 59 | 19 | 2.0 | 4.0 | 0.00 | 0.00 | 0.00 | 94 | 1016.2 |
| 20260508112713 | 59 | 31 | 1.0 | 3.0 | 0.00 | 0.00 | 0.00 | 94 | 1016.2 |
| 20260508112426 | 59 | 21 | 1.0 | 3.0 | 0.00 | 0.00 | 0.00 | 94 | 1016.3 |
| 20260508111657 | 59 | 21 | 1.0 | 4.0 | 0.00 | 0.00 | 0.00 | 94 | 1016.2 |
| 20260508111157 | 59 | 21 | 2.0 | 5.0 | 0.00 | 0.00 | 0.00 | 94 | 1016.2 |
| 20260508110656 | 59 | 336 | 2.0 | 5.0 | 0.00 | 0.00 | 0.00 | 94 | 1016.2 |
| 20260508110429 | 59 | 9 | 2.0 | 6.0 | 0.00 | 0.00 | 0.00 | 94 | 1016.0 |
| 20260508105918 | 59 | 343 | 2.0 | 6.0 | 0.00 | 0.00 | 0.00 | 94 | 1016.0 |
| 20260508105152 | 59 | 350 | 2.0 | 5.0 | 0.00 | 0.00 | 0.00 | 94 | 1015.8 |
| 20260508104651 | 59 | 25 | 2.0 | 5.0 | 0.00 | 0.00 | 0.00 | 94 | 1015.9 |
| 20260508104151 | 59 | 16 | 2.0 | 5.0 | 0.00 | 0.00 | 0.00 | 94 | 1016.1 |
| 20260508103651 | 59 | 10 | 2.0 | 4.0 | 0.00 | 0.00 | 0.00 | 94 | 1015.9 |
| 20260508103425 | 59 | 28 | 1.0 | 4.0 | 0.00 | 0.00 | 0.00 | 94 | 1015.9 |
| 20260508102652 | 59 | 339 | 1.0 | 3.0 | 0.00 | 0.00 | 0.00 | 94 | 1016.1 |
| 20260508102152 | 59 | 339 | 1.0 | 4.0 | 0.00 | 0.00 | 0.00 | 94 | 1016.2 |
| 20260508101651 | 59 | 338 | 1.0 | 4.0 | 0.00 | 0.00 | 0.00 | 93 | 1016.5 |
| 20260508101416 | 59 | 12 | 1.0 | 3.0 | 0.00 | 0.00 | 0.00 | 93 | 1016.6 |
| 20260508100651 | 59 | 9 | 1.0 | 3.0 | 0.00 | 0.00 | 0.00 | 93 | 1016.6 |
| 20260508100149 | 59 | 9 | 1.0 | 3.0 | 0.00 | 0.00 | 0.00 | 92 | 1016.8 |
| 20260508095649 | 59 | 9 | 1.0 | 3.0 | 0.00 | 0.00 | 0.00 | 92 | 1016.8 |
| 20260508095149 | 60 | 11 | 1.0 | 4.0 | 0.00 | 0.00 | 0.00 | 92 | 1016.7 |
| 20260508094917 | 60 | 355 | 2.0 | 4.0 | 0.00 | 0.00 | 0.00 | 92 | 1016.9 |
| 20260508094145 | 60 | 0 | 2.0 | 5.0 | 0.00 | 0.00 | 0.00 | 92 | 1016.9 |
| 20260508093645 | 60 | 0 | 2.0 | 5.0 | 0.00 | 0.00 | 0.00 | 91 | 1016.9 |
| 20260508093146 | 60 | 334 | 2.0 | 4.0 | 0.00 | 0.00 | 0.00 | 91 | 1016.9 |
| 20260508092646 | 60 | 348 | 2.0 | 3.0 | 0.00 | 0.00 | 0.00 | 91 | 1016.9 |
| 20260508092146 | 60 | 330 | 1.0 | 3.0 | 0.00 | 0.00 | 0.00 | 91 | 1016.8 |
| 20260508091646 | 60 | 331 | 1.0 | 3.0 | 0.00 | 0.00 | 0.00 | 90 | 1016.7 |
| 20260508091145 | 60 | 334 | 2.0 | 3.0 | 0.00 | 0.00 | 0.00 | 90 | 1016.6 |
| 20260508090646 | 60 | 335 | 1.0 | 3.0 | 0.00 | 0.00 | 0.00 | 90 | 1016.3 |
| 20260508090145 | 59 | 336 | 1.0 | 2.0 | 0.00 | 0.00 | 0.00 | 90 | 1016.3 |
| 20260508085644 | 59 | 336 | 0.0 | 2.0 | 0.00 | 0.00 | 0.00 | 91 | 1016.5 |
| 20260508085411 | 59 | 336 | 0.0 | 1.0 | 0.00 | 0.00 | 0.00 | 91 | 1016.3 |
| 20260508084905 | 59 | 336 | 0.0 | 0.0 | 0.00 | 0.00 | 0.00 | 91 | 1016.0 |
| 20260508084143 | 59 | 336 | 0.0 | 1.0 | 0.00 | 0.00 | 0.00 | 92 | 1016.1 |
| 20260508083645 | 59 | 336 | 0.0 | 1.0 | 0.00 | 0.00 | 0.00 | 92 | 1016.0 |
| 20260508083408 | 59 | 336 | 0.0 | 2.0 | 0.00 | 0.00 | 0.00 | 92 | 1016.0 |
| 20260508082640 | 59 | 336 | 0.0 | 2.0 | 0.00 | 0.00 | 0.00 | 92 | 1016.3 |
| 20260508082137 | 59 | 336 | 0.0 | 2.0 | 0.00 | 0.00 | 0.00 | 92 | 1016.3 |
| 20260508081637 | 59 | 336 | 0.0 | 2.0 | 0.00 | 0.00 | 0.00 | 93 | 1016.3 |
| 20260508081143 | 59 | 342 | 0.0 | 1.0 | 0.00 | 0.00 | 0.00 | 93 | 1016.1 |
| 20260508080642 | 58 | 342 | 0.0 | 1.0 | 0.00 | 0.00 | 0.00 | 93 | 1016.0 |
| 20260508080134 | 58 | 342 | 0.0 | 1.0 | 0.00 | 0.00 | 0.00 | 93 | 1015.9 |
| 20260508075640 | 58 | 342 | 0.0 | 2.0 | 0.00 | 0.00 | 0.00 | 93 | 1015.8 |
| 20260508075132 | 58 | 342 | 0.0 | 2.0 | 0.00 | 0.00 | 0.00 | 94 | 1015.9 |
| 20260508074632 | 58 | 342 | 0.0 | 1.0 | 0.00 | 0.00 | 0.00 | 94 | 1015.9 |
| 20260508074128 | 58 | 342 | 0.0 | 1.0 | 0.00 | 0.00 | 0.00 | 94 | 1015.9 |